Regional Weather Roundup
Issued by NWS

Home | Current Version | Previous Version | Graphics & Text | Print | Product List | Glossary On
Versions: 1 2 3 4 5 6 7 8 9 10 11 12 13 14 15 16 17 18 19 20 21 22 23 24 25 26 27 28 29 30 31 32 33 34 35 36 37 38 39 40 41 42 43 44 45 46 47 48 49 50
000
ASUS45 KABQ 030601
RWRNM
NEW MEXICO REGIONAL WEATHER ROUNDUP
NATIONAL WEATHER SERVICE ALBUQUERQUE NM
1200 AM MDT TUE MAY 03 2016

NOTE: "FAIR" MEANS FEW OR NO CLOUDS BELOW 12,000 FEET AGL WITH NO
       SIGNIFICANT WEATHER OR OBSTRUCTIONS TO VISION.

      THIS PRODUCT IS RELEASED AS TWO VERSIONS.  ONE VERSION NEAR
      THE TOP OF THE HOUR CONTAINING PRELIMINARY DATA FROM ALBUQUERQUE
      AND OTHER STATIONS.  A FINAL VERSION WITH ADDITIONAL DATA IS
      ISSUED ABOUT 10 MINUTES AFTER THE HOUR.

NMZ501-503-504-510>518-030700-
NORTHWEST PLATEAU/NORTHCENTRAL MOUNTAINS

CITY           SKY/WX    TMP DP  RH WIND       PRES   REMARKS
FARMINGTON     FAIR      47  36  65 E9        30.17S
6HR MIN TEMP:  47; 6HR MAX TEMP:  61;

SANTA FE       MOCLDY    48  29  47 CALM      30.18F
6HR MIN TEMP:  46; 6HR MAX TEMP:  59;

TAOS           FAIR      37  28  70 E7        30.21F WCI  32

$$
NMZ402-403-502-505>509-030700-
WESTCENTRAL MOUNTAINS/SOUTHWEST MOUNTAINS

CITY           SKY/WX    TMP DP  RH WIND       PRES   REMARKS
GALLUP         FAIR      42  37  82 S6        30.22S
6HR MIN TEMP:  42; 6HR MAX TEMP:  59;

GRANTS         CLOUDY    42  40  93 SW3       30.25F
SILVER CITY      N/A     48  25  40 NW3       30.16F

$$
NMZ407-409-411-412-030700-
SOUTHERN DESERTS

CITY           SKY/WX    TMP DP  RH WIND       PRES   REMARKS
LORDSBURG      FAIR      54  28  37 SE7       30.09R
DEMING         FAIR      53  26  35 NE8       30.10S
6HR MIN TEMP:  53; 6HR MAX TEMP:  71;

HOLLOMAN AFB   FAIR      55  28  34 S9        30.11S
ALAMOGORDO     FAIR      54  25  32 CALM      30.13S
T OR C         FAIR      55  29  36 E3        30.13S
6HR MIN TEMP:  54; 6HR MAX TEMP:  69;


$$
NMZ519>523-030700-
CENTRAL VALLEYS/CENTRAL HIGHLANDS

CITY           SKY/WX    TMP DP  RH WIND       PRES   REMARKS
ALBUQUERQUE    MOCLDY    55  36  48 SW9       30.20R
6HR MIN TEMP:  55; 6HR MAX TEMP:  64;

DOUBLE EAGLE   FAIR      50  39  66 SW13      30.21R
MORIARTY ARPT  CLOUDY    43  30  59 CALM      30.20S
6HR MIN TEMP:  40; 6HR MAX TEMP:  61;

CLINES CORNERS MOCLDY    42  27  55 W9        30.19F
6HR MIN TEMP:  39; 6HR MAX TEMP:  56;

BELEN          CLOUDY    50  44  78 NW13      30.21S
6HR MIN TEMP:  50; 6HR MAX TEMP:  64;

SOCORRO        NOT AVBL

$$
NMZ524>526-539-540-030700-
SOUTHCENTRAL MOUNTAINS

CITY           SKY/WX    TMP DP  RH WIND       PRES   REMARKS
RUIDOSO        NOT AVBL

$$
NMZ527>531-030700-
NORTHEAST HIGHLANDS/NORTHEAST PLAINS

CITY           SKY/WX    TMP DP  RH WIND       PRES   REMARKS
LAS VEGAS      FAIR      40  33  76 N7        30.19F
6HR MIN TEMP:  38; 6HR MAX TEMP:  56;

RATON          FAIR      37  32  82 NW3       30.16F
6HR MIN TEMP:  36; 6HR MAX TEMP:  56;

CLAYTON        FAIR      43  35  73 W7        30.13F
6HR MIN TEMP:  42; 6HR MAX TEMP:  58;


$$
NMZ532>537-030700-
EASTCENTRAL PLAINS

CITY           SKY/WX    TMP DP  RH WIND       PRES   REMARKS
TUCUMCARI      FAIR      47  38  71 SW7       30.12F
6HR MIN TEMP:  47; 6HR MAX TEMP:  64;

CANNON AFB     FAIR      46  35  64 SE5       30.15S
6HR MIN TEMP:  46; 6HR MAX TEMP:  64;

CLOVIS AIRPORT FAIR      45  34  65 S3        30.16S

$$
NMZ028-029-538-030700-
SOUTHEAST PLAINS

CITY           SKY/WX    TMP DP  RH WIND       PRES   REMARKS
ROSWELL        FAIR      52  31  44 W5        30.13F
6HR MIN TEMP:  50; 6HR MAX TEMP:  68;

ARTESIA        FAIR      52  32  46 SW10      30.14S
CARLSBAD       FAIR      49  31  49 SW3       30.13S
6HR MIN TEMP:  48; 6HR MAX TEMP:  67;

HOBBS          FAIR      48  32  53 CALM      30.16R


$$



USA.gov is the U.S. government's official web portal to all federal, state and local government web resources and services.